Location: Pasadena-CA
(34.1440°N, 118.1100°W)
Time: 21:44:32
(UTC-07:00)

FALCONSAT 3 - Pass Details

Date: 30 June 2022
Orbit: 392 x 398 km, 35.4° (Epoch: 17 August)

Event Time Altitude Azimuth Distance (km) Brightness Sun altitude
Rises 21:54:49 0° 252° (WSW) 2,326 ? -18.3°
Reaches altitude 10° 21:56:56 10° 251° (WSW) 1,462 ? -18.6°
Enters shadow 22:00:09 74° 190° (S) 423 ? -19.1°
